This is the latest recevied weather packets stored in our database for station/object K0SDS. If no packets are shown the sender has not sent any weather packets the latest 1 day(s).
| Time | Temp. | Humidity | Pressure | Rain* | Wind** | Luminosity | Snow |
|---|---|---|---|---|---|---|---|
| 1778052948 | 7.22° C | 91% | 1014.8 hPa | 0 mm | - | 0 W/m² | - |
| 1778052342 | 7.22° C | 91% | 1015 hPa | 0 mm | - | 0 W/m² | - |
| 1778050223 | 7.22° C | 89% | 1014.7 hPa | 0 mm | - | 0 W/m² | - |
| 1778049920 | 7.22° C | 89% | 1014.1 hPa | 0 mm | - | 0 W/m² | - |
| 1778049615 | 7.22° C | 88% | 1014 hPa | 0 mm | - | 0 W/m² | - |
| 1778049314 | 7.22° C | 88% | 1014.1 hPa | 0 mm | - | 0 W/m² | - |
| 1778049011 | 7.22° C | 88% | 1014.4 hPa | 0 mm | - | 0 W/m² | - |
| 1778048709 | 7.22° C | 88% | 1014.2 hPa | 0 mm | - | 0 W/m² | - |
| 1778047194 | 7.22° C | 88% | 1014.8 hPa | 0 mm | - | 0 W/m² | - |
| 1778046588 | 7.22° C | 88% | 1014.8 hPa | 0 mm | - | 0 W/m² | - |
| 1778046285 | 7.22° C | 88% | 1014.9 hPa | 0 mm | - | 0 W/m² | - |
| 1778045679 | 7.78° C | 87% | 1015.4 hPa | 0 mm | - | 0 W/m² | - |
| 1778045377 | 7.78° C | 85% | 1015.3 hPa | 0 mm | - | 0 W/m² | - |
| 1778044166 | 7.78° C | 87% | 1015.2 hPa | 1.78 mm | - | 0 W/m² | - |
| 1778043864 | 7.78° C | 87% | 1014.9 hPa | 0 mm | - | 0 W/m² | - |
| 1778043561 | 7.78° C | 87% | 1015.3 hPa | 0 mm | - | 0 W/m² | - |
| 1778043258 | 7.78° C | 85% | 1015.5 hPa | 0 mm | - | 0 W/m² | - |
| 1778042954 | 7.78° C | 85% | 1015.4 hPa | 1.27 mm | - | 0 W/m² | - |
| 1778042349 | 8.33° C | 81% | 1015.7 hPa | 1.27 mm | - | 0 W/m² | - |
| 1778040838 | 9.44° C | 70% | 1015 hPa | 0 mm | - | 0 W/m² | - |
| 1778040233 | 10° C | 69% | 1015.1 hPa | 0 mm | - | 0 W/m² | - |
| 1778039929 | 10.56° C | 67% | 1014.9 hPa | 0 mm | - | 0 W/m² | - |
| 1778039626 | 10.56° C | 66% | 1015 hPa | 0 mm | - | 0 W/m² | - |
| 1778038717 | 10° C | 68% | 1014.5 hPa | 0 mm | - | 0 W/m² | - |
| 1778038111 | 10° C | 74% | 1014.3 hPa | 0 mm | - | 0 W/m² | - |
* Rain latest hour (hover to see other rain measurements)
** Current wind speed in m/s (hover to see current wind gust speed)